Miscellaneous Local Product
Issued by NWS Hastings, NE

Home | Current Version | Previous Version | Graphics & Text | Print | Product List | Glossary On
Versions: 1 2 3 4 5 6 7 8 9 10 11 12 13 14 15 16 17 18 19 20 21 22 23 24 25 26 27 28 29 30 31 32 33 34 35 36 37 38 39 40 41 42 43 44 45 46 47 48 49 50
000
AXUS43 KGID 011302
MISGRI

GID CWA HOURLY WEATHER ROUNDUP
NATIONAL WEATHER SERVICE HASTINGS NE
800 AM CDT MON SEP 01 2014

NOTE: "FAIR" INDICATES FEW OR NO CLOUDS BELOW 12,000 FEET WITH NO
SIGNIFICANT WEATHER AND/OR OBSTRUCTIONS TO VISIBILITY.

...SOUTH CENTRAL NEBRASKA...

CITY           SKY/WX    TMP DP  RH WIND       PRES   REMARKS
GRAND ISLAND   SUNNY     58  55  90 NW9       29.88R
HASTINGS       MOSUNNY   58  53  84 NW9       29.89R
KEARNEY        PTCLDY    55  52  88 W10       29.92R
ORD            CLEAR     57  53  86 NW9       29.88R
YORK           SUNNY     59 N/A N/A NW9       29.86R
AURORA         SUNNY     58  57  97 W5        29.87R
LEXINGTON      CLEAR     54  52  95 NW6       29.93R
HOLDREGE       PTCLDY    56  53  91 N9        29.91S
HEBRON         SUNNY     61  56  83 NW3       29.88R

...NEBRASKA PANHANDLE...

CITY           SKY/WX    TMP DP  RH WIND       PRES   REMARKS
CHADRON        MOCLDY    48  46  93 W5        29.95S
ALLIANCE       PTCLDY    50  47  89 W7        29.99R
SCOTTSBLUFF    PTCLDY    51  49  92 CALM      30.01R
SIDNEY         PTCLDY    48  46  93 SW5       30.03R

...WESTERN AND NORTH CENTRAL NEBRASKA...

CITY           SKY/WX    TMP DP  RH WIND       PRES   REMARKS
VALENTINE      PTCLDY    53  52  96 SW9       29.91S
AINSWORTH      PTCLDY    54  52  95 W6        29.91S
ONEILL         SUNNY     57  56  95 W7        29.87R
BROKEN BOW     CLEAR     56  52  86 NW9       29.91R
IMPERIAL       MOCLDY    54  49  83 NW7       29.99R
NORTH PLATTE   CLEAR     51  49  92 W5        29.96R
MCCOOK         MOCLDY    56  53  90 W6        29.96R

...EASTERN NEBRASKA...

CITY           SKY/WX    TMP DP  RH WIND       PRES   REMARKS
NORFOLK        SUNNY     60  57  89 W7        29.83R
SO SIOUX CITY  PTSUNNY   63  60  90 NW6       29.78R
TEKAMAH        MOSUNNY   63  61  93 W5        29.79R
ALBION         SUNNY     58  55  88 NW8       29.86S
OMAHA EPPLEY   PTSUNNY   67  62  84 W7        29.80R
OFFUTT AFB     MOSUNNY   68  68  99 W8        29.80R
MILLARD        PTSUNNY   66  63  89 W6        29.81R
LINCOLN        SUNNY     63  60  90 S6        29.85R
NEBRASKA CITY  SUNNY     67  67 100 SW9       29.82R
BEATRICE       SUNNY     65  62  91 W6        29.85R
FALLS CITY     MOSUNNY   68  64  87 SW10      29.83R

...NORTHERN KANSAS...

CITY           SKY/WX    TMP DP  RH WIND       PRES   REMARKS
GOODLAND       PTCLDY    53  50  89 W6        30.02R
HILL CITY      PTCLDY    58  54  86 W5        29.95R
NORTON         CLOUDY    57  50  77 NW12      29.93R
PHILLIPSBURG   CLEAR     61  55  82 NW7       29.92R
SMITH CENTER   CLEAR     57  55  94 W8        29.92R
HAYS           PTCLDY    61  54  77 N7        29.92R
RUSSELL        CLEAR     64  60  87 NW14      29.90R
CONCORDIA      MOSUNNY   63  62  97 CALM      29.88R
SALINA         SUNNY     64  62  93 SW5       29.88R
TOPEKA         CLOUDY    67  65  93 SW10      29.86R



USA.gov is the U.S. government's official web portal to all federal, state and local government web resources and services.